• în România
  • Lista ţărilor
  • Pe 7 zile
  • Temperatura apei
  • Hartă satelitară
  • Meteo pe hartă
  • Widget-uri
  • user-avatar
    Intrare

    Meteo pe oră la Ploieşti

    Astăzi, 18 Iulie, Miercuri

    Timp Temperatura Precipitaţii Vânt Presiune Umiditate
    00:00 +21°C° 0 mm 2 m/s 740 mmHg 67%
    01:00 +20°C° 0 mm 2 m/s 740 mmHg 68%
    02:00 +20°C° 0 mm 2 m/s 739 mmHg 68%
    03:00 +19°C° 0,1 mm 2 m/s 739 mmHg 71%
    04:00 +19°C° 0,1 mm 2 m/s 739 mmHg 73%
    05:00 +18°C° 0,1 mm 2 m/s 739 mmHg 75%
    06:00 +20°C° 0,1 mm 2 m/s 739 mmHg 70%
    07:00 +23°C° 0,1 mm 1 m/s 739 mmHg 64%
    08:00 +25°C° 0 mm 1 m/s 740 mmHg 59%
    09:00 +26°C° 0,1 mm 2 m/s 739 mmHg 56%
    10:00 +27°C° 0,1 mm 2 m/s 739 mmHg 52%
    11:00 +29°C° 0,1 mm 2 m/s 739 mmHg 49%
    12:00 +29°C° 0,2 mm 2 m/s 739 mmHg 48%
    13:00 +30°C° 0,2 mm 3 m/s 739 mmHg 47%
    14:00 +30°C° 0,2 mm 3 m/s 739 mmHg 45%
    15:00 +30°C° 0,3 mm 3 m/s 738 mmHg 47%
    16:00 +30°C° 0,3 mm 3 m/s 738 mmHg 48%
    17:00 +29°C° 0,3 mm 2 m/s 738 mmHg 50%
    18:00 +28°C° 0,1 mm 3 m/s 738 mmHg 55%
    19:00 +26°C° 0,1 mm 3 m/s 738 mmHg 60%
    20:00 +25°C° 0,1 mm 3 m/s 738 mmHg 65%
    21:00 +24°C° 0,1 mm 3 m/s 738 mmHg 68%
    22:00 +23°C° 0,1 mm 2 m/s 738 mmHg 71%
    23:00 +21°C° 0,1 mm 2 m/s 738 mmHg 74%

    Mâine, 19 Iulie, Joi

    Timp Temperatura Precipitaţii Vânt Presiune Umiditate
    00:00 +21°C° 0,3 mm 2 m/s 739 mmHg 75%
    01:00 +21°C° 0,3 mm 2 m/s 739 mmHg 77%
    02:00 +21°C° 0,3 mm 1 m/s 739 mmHg 78%
    03:00 +21°C° 0,1 mm 1 m/s 739 mmHg 79%
    04:00 +21°C° 0,1 mm 1 m/s 739 mmHg 81%
    05:00 +21°C° 0,1 mm 1 m/s 739 mmHg 82%
    06:00 +21°C° 0,2 mm 2 m/s 739 mmHg 79%
    07:00 +23°C° 0,2 mm 2 m/s 739 mmHg 77%
    08:00 +23°C° 0,2 mm 2 m/s 740 mmHg 74%
    09:00 +24°C° 0,3 mm 2 m/s 740 mmHg 72%
    10:00 +25°C° 0,3 mm 2 m/s 740 mmHg 70%
    11:00 +25°C° 0,3 mm 2 m/s 740 mmHg 68%
    12:00 +27°C° 0,2 mm 2 m/s 740 mmHg 63%
    13:00 +28°C° 0,2 mm 2 m/s 740 mmHg 58%
    14:00 +29°C° 0,2 mm 2 m/s 740 mmHg 52%
    15:00 +30°C° 0 mm 2 m/s 740 mmHg 52%
    16:00 +30°C° 0 mm 2 m/s 740 mmHg 51%
    17:00 +30°C° 0 mm 2 m/s 740 mmHg 51%
    18:00 +29°C° 0 mm 2 m/s 740 mmHg 56%
    19:00 +27°C° 0 mm 2 m/s 741 mmHg 62%
    20:00 +26°C° 0 mm 1 m/s 741 mmHg 67%
    21:00 +25°C° 0,2 mm 2 m/s 741 mmHg 71%
    22:00 +24°C° 0,2 mm 2 m/s 741 mmHg 75%
    23:00 +23°C° 0,2 mm 2 m/s 742 mmHg 78%

    Poimâine, 20 Iulie, Vineri

    Timp Temperatura Precipitaţii Vânt Presiune Umiditate
    00:00 +23°C° 0,1 mm 2 m/s 742 mmHg 79%
    01:00 +23°C° 0,1 mm 1 m/s 742 mmHg 80%
    02:00 +22°C° 0,1 mm 1 m/s 742 mmHg 81%
    03:00 +22°C° 0 mm 1 m/s 742 mmHg 82%
    04:00 +22°C° 0 mm 1 m/s 742 mmHg 83%
    05:00 +22°C° 0 mm 1 m/s 742 mmHg 84%
    06:00 +23°C° 0,1 mm 1 m/s 742 mmHg 78%
    07:00 +25°C° 0,1 mm 1 m/s 742 mmHg 72%
    08:00 +26°C° 0,1 mm 1 m/s 743 mmHg 67%
    09:00 +27°C° 0,2 mm 1 m/s 743 mmHg 63%
    10:00 +28°C° 0,2 mm 1 m/s 743 mmHg 59%
    11:00 +29°C° 0,2 mm 2 m/s 743 mmHg 55%
    12:00 +30°C° 0,9 mm 1 m/s 743 mmHg 55%
    13:00 +30°C° 0,9 mm 1 m/s 743 mmHg 55%
    14:00 +30°C° 0,9 mm 1 m/s 742 mmHg 55%
    15:00 +30°C° 0,5 mm 1 m/s 742 mmHg 55%
    16:00 +30°C° 0,5 mm 1 m/s 742 mmHg 55%
    17:00 +30°C° 0,5 mm 1 m/s 742 mmHg 56%
    18:00 +29°C° 0 mm 1 m/s 742 mmHg 60%
    19:00 +27°C° 0 mm 1 m/s 743 mmHg 64%
    20:00 +26°C° 0 mm 1 m/s 743 mmHg 69%
    21:00 +25°C° 0,5 mm 2 m/s 743 mmHg 72%
    22:00 +24°C° 0,5 mm 2 m/s 743 mmHg 75%
    23:00 +23°C° 0,5 mm 2 m/s 743 mmHg 78%

    21 Iulie, Sâmbătă

    Timp Temperatura Precipitaţii Vânt Presiune Umiditate
    00:00 +23°C° 0 mm 2 m/s 743 mmHg 79%
    01:00 +23°C° 0 mm 2 m/s 743 mmHg 79%
    02:00 +21°C° 0 mm 2 m/s 743 mmHg 80%
    03:00 +21°C° 0 mm 2 m/s 743 mmHg 81%
    04:00 +21°C° 0 mm 2 m/s 744 mmHg 81%
    05:00 +20°C° 0 mm 2 m/s 744 mmHg 82%
    06:00 +23°C° 0 mm 2 m/s 744 mmHg 76%
    07:00 +25°C° 0 mm 2 m/s 744 mmHg 71%
    08:00 +26°C° 0 mm 1 m/s 744 mmHg 65%
    09:00 +28°C° 0 mm 2 m/s 744 mmHg 61%
    10:00 +29°C° 0 mm 2 m/s 744 mmHg 56%
    11:00 +30°C° 0 mm 2 m/s 744 mmHg 52%
    12:00 +30°C° 0,1 mm 2 m/s 744 mmHg 51%
    13:00 +31°C° 0,1 mm 2 m/s 744 mmHg 50%
    14:00 +31°C° 0,1 mm 2 m/s 744 mmHg 49%
    15:00 +31°C° 0,3 mm 2 m/s 743 mmHg 50%
    16:00 +31°C° 0,3 mm 2 m/s 743 mmHg 52%
    17:00 +31°C° 0,3 mm 2 m/s 743 mmHg 54%
    18:00 +29°C° 0 mm 1 m/s 743 mmHg 58%
    19:00 +28°C° 0 mm 1 m/s 743 mmHg 63%
    20:00 +26°C° 0 mm 1 m/s 743 mmHg 67%
    21:00 +26°C° 0,2 mm 1 m/s 743 mmHg 70%
    22:00 +25°C° 0,2 mm 1 m/s 743 mmHg 72%
    23:00 +24°C° 0,2 mm 1 m/s 743 mmHg 75%

    22 Iulie, Duminică

    Timp Temperatura Precipitaţii Vânt Presiune Umiditate
    00:00 +24°C° 0,4 mm 1 m/s 743 mmHg 75%
    01:00 +23°C° 0,4 mm 1 m/s 743 mmHg 76%
    02:00 +23°C° 0,4 mm 1 m/s 743 mmHg 76%
    03:00 +23°C° 0,4 mm 1 m/s 743 mmHg 77%
    04:00 +22°C° 0,4 mm 1 m/s 743 mmHg 77%
    05:00 +22°C° 0,4 mm 1 m/s 743 mmHg 77%
    06:00 +24°C° 0 mm 1 m/s 743 mmHg 73%
    07:00 +25°C° 0 mm 1 m/s 743 mmHg 69%
    08:00 +26°C° 0 mm 1 m/s 742 mmHg 66%
    09:00 +28°C° 0,4 mm 1 m/s 742 mmHg 63%
    10:00 +29°C° 0,4 mm 1 m/s 742 mmHg 60%
    11:00 +30°C° 0,4 mm 1 m/s 742 mmHg 58%
    12:00 +30°C° 0,8 mm 1 m/s 741 mmHg 56%
    13:00 +30°C° 0,8 mm 1 m/s 741 mmHg 55%
    14:00 +31°C° 0,8 mm 1 m/s 741 mmHg 54%
    15:00 +31°C° 0,5 mm 1 m/s 740 mmHg 55%
    16:00 +30°C° 0,5 mm 1 m/s 740 mmHg 56%
    17:00 +30°C° 0,5 mm 1 m/s 740 mmHg 57%
    18:00 +29°C° 0,5 mm 2 m/s 740 mmHg 62%
    19:00 +27°C° 0,5 mm 2 m/s 740 mmHg 68%
    20:00 +26°C° 0,5 mm 2 m/s 740 mmHg 73%
    21:00 +25°C° 1,1 mm 2 m/s 740 mmHg 77%
    22:00 +24°C° 1,1 mm 2 m/s 740 mmHg 81%
    23:00 +23°C° 1,1 mm 2 m/s 741 mmHg 85%

    23 Iulie, Luni

    Timp Temperatura Precipitaţii Vânt Presiune Umiditate
    00:00 +23°C° 0,8 mm 2 m/s 740 mmHg 86%
    01:00 +21°C° 0,8 mm 2 m/s 740 mmHg 87%
    02:00 +21°C° 0,8 mm 2 m/s 740 mmHg 88%
    03:00 +21°C° 0,2 mm 2 m/s 740 mmHg 88%
    04:00 +21°C° 0,2 mm 2 m/s 740 mmHg 87%
    05:00 +21°C° 0,2 mm 2 m/s 740 mmHg 87%
    06:00 +23°C° 0,2 mm 2 m/s 740 mmHg 83%
    07:00 +24°C° 0,2 mm 2 m/s 740 mmHg 79%
    08:00 +25°C° 0,2 mm 2 m/s 740 mmHg 75%
    09:00 +25°C° 0,9 mm 3 m/s 740 mmHg 74%
    10:00 +26°C° 0,9 mm 3 m/s 740 mmHg 74%
    11:00 +26°C° 0,9 mm 3 m/s 740 mmHg 73%
    12:00 +26°C° 1 mm 3 m/s 740 mmHg 73%
    13:00 +27°C° 1 mm 3 m/s 740 mmHg 72%
    14:00 +27°C° 1 mm 3 m/s 740 mmHg 72%
    15:00 +27°C° 0,6 mm 3 m/s 740 mmHg 70%
    16:00 +27°C° 0,6 mm 3 m/s 740 mmHg 69%
    17:00 +27°C° 0,6 mm 2 m/s 740 mmHg 68%
    18:00 +26°C° 0,3 mm 2 m/s 740 mmHg 71%
    19:00 +25°C° 0,3 mm 2 m/s 741 mmHg 75%
    20:00 +24°C° 0,3 mm 2 m/s 741 mmHg 78%
    21:00 +23°C° 0,2 mm 2 m/s 741 mmHg 79%
    22:00 +23°C° 0,2 mm 2 m/s 741 mmHg 80%
    23:00 +21°C° 0,2 mm 2 m/s 741 mmHg 81%
    Arată mai mult